Fayetteville, NC

4:01 PM EDT on October 22, 2019 (GMT -0400)
Fayetteville Regional-Grannis

Weather History for KFAY - September, 2019

Change the Weather History Date:

Tuesday, September 17, 2019

  Actual Average Record
Temperature  
Mean Temperature 79 °F 74 °F  
Max Temperature 90 °F 83 °F 102 °F (1931)
Min Temperature 67 °F 64 °F 47 °F (1966)
Degree Days  
Heating Degree Days 0 0  
Month to date heating degree days 0 0  
Since 1 July heating degree days 0 0  
Cooling Degree Days 14 9  
Month to date cooling degree days 256 182  
Year to date cooling degree days 2224 1822  
Growing Degree Days 30 (Base 50)    
Moisture  
Dew Point 65 °F    
Average Humidity 64    
Maximum Humidity 87    
Minimum Humidity 41    
Precipitation  
Precipitation 0.01 in 0.15 in 2.47 in (1924)
Month to date precipitation 3.62 2.54  
Year to date precipitation 32.53 33.97  
Sea Level Pressure  
Sea Level Pressure 29.97 in    
Wind  
Wind Speed 7 mph (NE)    
Max Wind Speed 17 mph    
Max Gust Speed 22 mph    
Visibility 10 miles    
Events      
T = Trace of Precipitation, MM = Missing Value Source: NWS Daily Summary

Daily Weather History Graph

Daily Weather History Graph

Search for Another Location

Airport or City:

Astronomy

Sep. 17, 2019 Rise Set
Actual Time 6:59 AM EDT 7:19 PM EDT
Civil Twilight 6:34 AM EDT 7:45 PM EDT
Nautical Twilight 6:04 AM EDT 8:14 PM EDT
Astronomical Twilight 5:34 AM EDT 8:44 PM EDT
Moon 9:29 PM EDT (9/17) 9:56 AM EDT (9/17)
Length of Visible Light 13h 10m
Length of Day
12h 20m
Waning Gibbous, 89% of the Moon is Illuminated
Sep 17
Waning Gibbous
Sep 21
Last Quarter
Sep 28
New
Oct 5
First Quarter
Oct 13
Full

Hourly Weather History & Observations

Time (EDT) Temp. Heat Index Dew Point Humidity Pressure Visibility Wind Dir Wind Speed Gust Speed Precip Events Conditions
12:53 AM - - - N/A% 29.96 in 10.0 mi ENE 5.8 mph - N/A   Clear
1:53 AM - - - N/A% 29.96 in 10.0 mi NNE 4.6 mph - N/A   Clear
2:53 AM - - - N/A% 29.94 in 10.0 mi NE 4.6 mph - N/A   Clear
3:53 AM - - - N/A% 29.94 in - North - - N/A   Unknown
4:53 AM - - - N/A% 29.92 in - North - - N/A   Unknown
5:53 AM - - - N/A% 29.94 in - North - - N/A   Unknown
8:53 AM 75.0 °F - 71.1 °F 87% 29.98 in - NNE 6.9 mph - N/A   Clear
9:53 AM 80.1 °F 82.9 °F 69.1 °F 69% 29.99 in 10.0 mi NNE 9.2 mph - N/A   Clear
10:53 AM 84.0 °F 85.4 °F 64.0 °F 51% 29.99 in 10.0 mi ENE 8.1 mph - N/A   Clear
11:53 AM 86.0 °F 86.3 °F 62.1 °F 44% 29.99 in 10.0 mi ENE 8.1 mph - N/A   Clear
12:53 PM 87.1 °F 87.5 °F 62.1 °F 43% 29.97 in 10.0 mi ENE 6.9 mph - N/A   Partly Cloudy
12:56 PM 88.0 °F 88.4 °F 62.1 °F 42% 29.97 in 10.0 mi East 8.1 mph - N/A   Clear
1:53 PM 89.1 °F 90.0 °F 63.0 °F 42% 29.97 in 10.0 mi ENE 8.1 mph - N/A   Clear
2:53 PM 90.0 °F 90.3 °F 62.1 °F 39% 29.95 in 10.0 mi NE 8.1 mph - N/A   Clear
3:53 PM 89.1 °F 89.3 °F 62.1 °F 40% 29.95 in 10.0 mi ENE 8.1 mph - N/A   Clear
4:53 PM 88.0 °F 88.7 °F 63.0 °F 43% 29.94 in 10.0 mi NE 5.8 mph - N/A   Clear
5:53 PM 87.1 °F 87.8 °F 63.0 °F 44% 29.95 in 10.0 mi ENE 9.2 mph - N/A   Partly Cloudy
6:53 PM 82.9 °F 85.0 °F 66.0 °F 56% 29.96 in 10.0 mi ENE 4.6 mph - N/A   Clear
7:53 PM 79.0 °F - 66.9 °F 66% 29.97 in 10.0 mi NE 4.6 mph - N/A   Clear
8:53 PM 78.1 °F - 66.9 °F 68% 29.99 in 10.0 mi North 11.5 mph - N/A   Overcast
9:53 PM 72.0 °F - 66.9 °F 84% 30.01 in 10.0 mi NE 6.9 mph 17.3 mph 0.01 in   Overcast
10:53 PM 71.1 °F - 66.9 °F 87% 30.02 in 10.0 mi NNE 6.9 mph - N/A   Mostly Cloudy
11:53 PM 71.1 °F - 66.9 °F 87% 30.03 in 10.0 mi NNE 5.8 mph - N/A   Overcast